User: anonymous   Login
Location: Unspecified
(0.0000°N, 0.0000°E)
Time: 06:10:32
(UTC+00:00)
Language:

Nadezhda 3 - Orbit

View from above orbital plane
View from above orbital plane
View from above satellite
View from above satellite

Ground track
Ground track

The orbit data is extracted from the following two-line orbital elements,

1 21152U 91019A   17296.54345059  .00000013  00000-0 -14383-5 0  9990
2 21152  82.9239 126.1521 0040596 234.3906 152.4445 13.74224056334587
Epoch (UTC): 23 October 2017 13:02:34
Eccentricity: 0.0040596
inclination: 82.9239°
perigee height: 954 km
apogee height: 1014 km
right ascension of ascending node: 126.1521°
argument of perigee: 234.3906°
revolutions per day: 13.74224056
mean anomaly at epoch: 152.4445°
orbit number at epoch: 33458

The dashed part of the orbit path shows where the satellite is in the earth's shadow,  

DLR